星链-5061 (STARLINK-5061 )

导读 | 星芒AI

STARLINK-5061 是 SpaceX 星链计划中的一颗低轨通信卫星,属于第61批发射的星链卫星群。该卫星运行在约550公里高度的近地轨道,旨在为全球用户提供高速互联网服务。作为星链星座的重要组成部分,它支持宽带通信,提升偏远地区的网络覆盖。该卫星采用可再生太阳能供电,并具备自动避撞功能,以确保太空安全。星链项目持续推进,目标是构建由数万颗卫星组成的全球网络系统。

基本信息
目录编号:
54847
目录名称:
STARLINK-5061
国际标识:
2022-177AD
轨道中心:
EARTH
卫星名称:
星链-5061
卫星全名:
星链-5061 (STARLINK-5061 )
卫星状态:
在轨 (已飞行1089 天)
发射日期:
2022-12-28 UTC
国别 :
美国 (US)
星等 :
--
轨道信息
数据来源 国际轨道数据 AOE轨道数据
星历时间 2025-12-21T11:42:09+0800
6小时前
查看轨道信息
2025-12-16T15:00:00+0800
5天前
查看轨道信息
半长轴 6937.215km 6937.209km
偏心率 0.0001244 0.0001655
轨道倾角 43.002° 42.998°
近地点辐角 263.599° 262.259°
升交点赤经 173.880° 200.301°
平近点角 96.471° 45.144°
近地点 558.215km 557.925km
远地点 559.941km 560.223km
周期 95.838分钟 95.838分钟
每日圈数 15.025368 15.025387
详细信息
固有亮度:
5
最大亮度:
2.5
卫星平台:
Starlink v1.5
覆盖范围:
全球
运营商:
太空探索技术公司
运营商所在国:
美国
制造商(研发单位):
太空探索技术公司
制造商所在国:
美国
使用方式:
暂无
卫星简介
星链(Starlink)计划是由太空探索技术公司(SpaceX)提出的一个巨型低轨卫星互联网星座项目,计划在2019年至2024年间在太空搭建由约1.2万颗卫星组成的“星链”网络,其中1584颗将部署在地球上空550千米处的近地轨道,并从2020年开始工作。该卫星仍在工作。
2D轨道图
3D轨道图
轨道高度分析图
轨道倾角分析图
轨道综合分析图
查看轨道综合分析图